Terminal Aerodrome Forecast
Issued by NWS

Home | Current Version | Previous Version | Text Only | Print | Product List | Glossary On
Versions: 1 2 3 4 5 6 7 8 9 10 11 12 13 14 15 16 17 18 19 20 21 22 23 24 25 26 27 28 29 30 31 32 33 34 35 36 37 38 39 40 41 42 43 44 45 46 47 48 49 50
000
FTUS45 KCYS 031412 AAA
TAFRWL
TAF AMD
KRWL 031412Z 0314/0412 06005KT 5SM -SN OVC027
     FM031700 03005KT 5SM -SHSN SCT012 BKN018
     FM032000 01010KT 1SM -SN SCT007 BKN015
     FM040300 02006KT P6SM VCSH SCT015 BKN025
     FM040800 VRB04KT P6SM SCT040 BKN060=

USA.gov is the U.S. government's official web portal to all federal, state and local government web resources and services.